Location: Fenton Hill Observtory
(35.8809°N, 106.6741°W)
Time: 00:22:02
(UTC-06:00)

N. Korean satellite - Visible Passes

Search period start: 26 September 2018 00:00
Search period end: 06 October 2018 00:00
Orbit: 458 x 511 km, 97.2° (Epoch: 24 September)

Date Brightness Start Highest point End Pass type
(mag) Time Alt. Az. Time Alt. Az. Time Alt. Az.
26 Sep 9.8 19:36:23 10° SW 19:38:51 18° W 19:41:23 10° NW visible
30 Sep 9.7 19:32:09 10° SW 19:34:51 20° W 19:37:36 10° NW visible
02 Oct 10.0 06:37:19 10° NE 06:39:52 17° E 06:42:24 10° SE visible
03 Oct 10.3 19:54:14 10° WSW 19:55:20 11° W 19:56:24 10° WNW visible
04 Oct 9.4 19:27:53 10° SSW 19:30:46 23° W 19:33:44 10° NW visible
